Regional Weather Roundup
Issued by NWS

Home | Current Version | Previous Version | Graphics & Text | Print | Product List | Glossary On
Versions: 1 2 3 4 5 6 7 8 9 10 11 12 13 14 15 16 17 18 19 20 21 22 23 24 25 26 27 28 29 30 31 32 33 34 35 36 37 38 39 40 41 42 43 44 45 46 47 48 49 50
000
ASUS43 KFSD 220102
RWRSD

WEATHER ROUNDUP FOR SOUTH DAKOTA
NATIONAL WEATHER SERVICE SIOUX FALLS SD
700 PM CST SUN JAN 21 2018

NOTE: "FAIR" INDICATES FEW OR NO CLOUDS BELOW 12,000 FEET WITH NO
SIGNIFICANT WEATHER AND/OR OBSTRUCTIONS TO VISIBILITY.


SDZ001>005-009-010-012>017-220200-
NORTHWEST AND NORTH CENTRAL SOUTH DAKOTA

CITY           SKY/WX    TMP DP  RH WIND       PRES   REMARKS
BUFFALO          N/A     28  20  71 NW10      29.95R WCI  19
FAITH            N/A     29  25  85 NW5       30.01R WCI  24
MOBRIDGE       CLOUDY    28  23  81 N5        30.01R WCI  23
$$

SDZ012>016-024>037-041>051-057-063-072>074-220200-
SOUTHWEST AND SOUTH CENTRAL SOUTH DAKOTA

CITY           SKY/WX    TMP DP  RH WIND       PRES   REMARKS
RAPID CTY ARPT CLOUDY    31  23  72 N13       30.00R WCI  21
PIERRE         MOCLDY    30  25  81 N9        30.01R WCI  22
CUSTER         CLOUDY    24  16  71 VRB5      29.93R WCI  18
ELLSWORTH AFB  CLOUDY    32  24  73 N14       30.00R WCI  22
PHILIP         CLOUDY    31  29  92 CALM      30.02R
PINE RIDGE     CLOUDY    28  26  92 W3        29.99S
SPEARFISH        N/A     27  21  80 W6        30.02R WCI  20
WINNER         LGT SNOW  32  30  92 N17       29.95S FOG     WCI  21
$$

SDZ004>011-016>023-039-040-220200-
NORTHEAST SOUTH DAKOTA

CITY           SKY/WX    TMP DP  RH WIND       PRES   REMARKS
ABERDEEN       MOCLDY    29  25  85 N9        30.04R WCI  20
WATERTOWN      CLOUDY    29  26  89 N14       29.95F WCI  18
SISSETON         N/A     28  25  88 N12       30.03R WCI  18
$$

SDZ017-020-022-023-036>040-048>070-220200-
SOUTHEAST SOUTH DAKOTA

CITY           SKY/WX    TMP DP  RH WIND       PRES   REMARKS
SIOUX FALLS    CLOUDY    36  31  82 NE16      29.89R
HURON          CLOUDY    31  29  92 N15       29.97S WCI  20
CHAMBERLAIN    LGT SNOW  32  32  99 NW15      29.96R WCI  22
MITCHELL       CLOUDY    33  31  92 N15       29.93F WCI  23
YANKTON        CLOUDY    37  29  72 N17       29.86R
$$

ABBREVIATIONS USED IN REMARKS
   TC - TEMPERATURE IN CELSIUS
  WCI - WIND CHILL INDEX
   HX - HEAT INDEX
  VSB - VISIBILITY





USA.gov is the U.S. government's official web portal to all federal, state and local government web resources and services.